User: anonymous   Login
Location: Caltech
(34.1382°N, 118.1253°W)
Time: 09:19:55
(UTC-08:00)
Language:

OAO 1 Rocket - Orbit

View from above orbital plane
View from above orbital plane
View from above satellite
View from above satellite

Ground track
Ground track

The orbit data is extracted from the following two-line orbital elements,

1 02144U 66031B   14329.17642590  .00000452  00000-0  14111-3 0  7743
2 02144 035.0436 338.2047 0008705 278.5748 081.3956 14.42243816553024
Epoch (UTC): 25 November 2014 04:14:03
Eccentricity: 0.0008705
inclination: 35.0436°
perigee height: 745 km
apogee height: 757 km
right ascension of ascending node: 338.2047°
argument of perigee: 278.5748°
revolutions per day: 14.42243816
mean anomaly at epoch: 81.3956°
orbit number at epoch: 55302

The dashed part of the orbit path shows where the satellite is in the earth's shadow,  

DLR